Flag Weather past 2 weeks in Guimarães, Portugal

Now
46 °F

Cool.


Feels Like: 45 °F
Forecast: 42 / 58 °F
Wind: 3 mph from Northeast

Location: Porto / Pedras Rubras

Current Time: Nov 29, 2014 at 6:29:06 AM

Latest Report: Nov 29, 2014 at 5:00 AM


Visibility: N/A

Pressure: 29.41 "Hg

Humidity: 75%

Dew point: 39 °F

Location of GuimarãesLocation

Historic Weather in Guimarães — Graph

°F

Guimarães temperature yesterday

Maximum temperature yesterday: 58 °F (at 2:00 PM)
Minimum temperature yesterday: 48 °F (at 11:00 PM)
Average temperature yesterday: 52 °F

Past Weeks' High & Low Weather Summary

 TemperatureHumidityPressure
High71 °F (Nov 21, 2:00 PM)93% (Nov 25, 1:00 AM)30.12 "Hg (Nov 25, 1:00 AM)
Low46 °F (Nov 29, 5:00 AM)53% (Nov 21, 3:00 PM)28.85 "Hg (Nov 28, 12:00 AM)
Average57 °F76%29.79 "Hg
* Reported Nov 14 5:00 AM — Nov 29 5:00 AM, Guimarães, Weather by CustomWeather, © 2014

Note: Actual official high and low records may vary slightly from our data, if they occured in-between our weather recording intervals... More about our weather records

Advertising

Guimarães weather history for previous 24 hours

 ConditionsComfort  
Time TempWeatherWind HumidityBarometerVisibility
5:00 AM
Nov 29
46 °FCool.3 mph75%29.41 "HgN/A
4:00 AM48 °FCool.3 mph72%29.38 "HgN/A
2:00 AM48 °FCool.5 mph74%29.35 "HgN/A
1:00 AM49 °FCool.5 mph72%29.35 "HgN/A
12:00 AM47 °FCool.5 mph80%29.32 "HgN/A
11:00 PM
Nov 28
48 °FCool.2 mph77%29.29 "HgN/A
10:00 PM49 °FCool.3 mph77%29.29 "HgN/A
9:00 PM51 °FCool.5 mph73%29.23 "HgN/A
8:00 PM50 °FCool.3 mph76%29.23 "HgN/A
7:00 PM53 °FCool.3 mph72%29.21 "HgN/A
6:00 PM52 °FCool.3 mph80%29.15 "HgN/A
5:00 PM52 °FCool.2 mph76%29.12 "HgN/A
4:00 PM56 °FCool.3 mph66%29.09 "HgN/A
3:00 PM57 °FRefreshingly cool.2 mph60%29.06 "HgN/A
2:00 PM58 °FRefreshingly cool.2 mph60%29.03 "HgN/A
1:00 PM55 °FCool.3 mph71%29.03 "HgN/A
12:00 PM55 °FCool.5 mph75%29.03 "HgN/A
11:00 AM51 °FCool.6 mph83%29.00 "HgN/A
10:00 AM53 °FCool.3 mph79%28.97 "HgN/A
9:00 AM51 °FCool.2 mph91%28.94 "HgN/A
8:00 AM51 °FCool.1 mph91%28.91 "HgN/A
7:00 AM51 °FCool.2 mph91%28.91 "HgN/A
6:00 AM51 °FCool.3 mph90%28.88 "HgN/A
Weather by CustomWeather, © 2014

See weather overviewHow to use our weather pages